Location: Canyam�s
(41.5996°N, 2.4450°E)
Time: 04:23:51
(UTC+00:00)

Hubble Space Telescope - Pass Details

Date: 14 August 2020
Orbit: 536 x 540 km, 28.5° (Epoch: 22 September)

Event Time Altitude Azimuth Distance (km) Brightness Sun altitude
Exits shadow 03:32:50 12° 181° (S) 1,629 2.9 -14.9°
Maximum altitude 03:33:13 13° 175° (S) 1,621 2.9 -14.9°
Drops below altitude 10° 03:35:01 10° 149° (SSE) 1,780 3.4 -14.6°
Sets 03:38:25 0° 120° (ESE) 2,673 4.7 -14.1°
